DateTimeUTC,F1_A11,F1_S11,BsB_S11,BsG_S11,BsR_S11,BbsB_S11,BbsG_S11,BbsR_S11,BaB_A11,BaG_A11,BaR_A11,Tu_S11,T_S11,Uu_S11,U_S11,P_S11,T1_A11
2021-11-20T18:00:00Z,00000200,21000000,,,,,,,0000.11,0000.09,0000.06,18.7,25.3,,00.0,0636.6,30.9
2021-11-20T18:01:00Z,00000200,21000000,,,,,,,-000.09,0000.14,-000.01,18.7,25.3,,00.0,0636.6,30.8
2021-11-20T18:02:00Z,00000200,21000000,,,,,,,-000.34,-000.32,-000.11,18.7,25.3,,00.0,0636.6,30.8
2021-11-20T18:03:00Z,00000200,61000000,,,,,,,0000.60,0000.52,0000.39,18.7,25.3,,00.0,0636.6,30.8
2021-11-20T18:04:00Z,00000200,41000000,0000.72,0000.67,-000.12,0000.26,-000.03,0000.21,0000.70,0000.38,0000.29,18.7,25.1,,00.0,0637.3,30.8
2021-11-20T18:05:00Z,00000200,01000000,0000.76,0000.39,0000.13,0000.30,0000.30,0000.08,-000.04,0000.34,0000.24,18.7,25.0,,00.0,0637.3,30.8
2021-11-20T18:06:00Z,00000200,01000000,-000.60,0000.33,0000.26,0001.05,0000.10,-000.03,0000.45,0000.09,0000.29,18.7,25.0,,00.0,0637.3,30.8
2021-11-20T18:07:00Z,00000200,01000000,-000.89,-000.08,-000.21,0000.21,-000.05,0000.01,0000.27,0000.31,0000.22,18.8,25.0,,00.0,0637.2,30.8
2021-11-20T18:08:00Z,00000200,01000000,0000.44,0000.12,-000.02,-000.01,-000.45,0000.32,0000.36,-000.03,-000.08,18.8,25.0,,00.0,0637.2,30.8
2021-11-20T18:09:00Z,00000200,01000000,0000.13,0000.34,0000.26,0000.42,-000.02,0000.18,0000.01,0000.43,0000.49,18.9,25.1,,00.0,0637.2,30.8
2021-11-20T18:10:00Z,00000200,01000000,0000.43,0000.24,0000.18,-000.11,0000.24,-000.19,0000.20,0000.36,-000.09,18.9,25.1,,00.0,0637.2,30.9
2021-11-20T18:11:00Z,00000200,01000000,0000.73,0000.50,0000.40,0000.05,0000.14,0000.15,0000.18,0000.26,0000.73,18.9,25.1,,00.0,0637.2,30.9
2021-11-20T18:12:00Z,00000200,01000000,0001.07,0000.38,0000.20,0000.32,0000.10,-000.14,0000.28,0000.05,-000.21,19.0,25.1,,00.0,0637.2,30.9
2021-11-20T18:13:00Z,00000200,01000000,-000.15,0000.54,-000.00,-000.09,0000.10,0000.06,0000.38,0000.38,0000.48,19.0,25.1,,00.0,0637.2,30.9
2021-11-20T18:14:00Z,00000200,01000000,0000.89,0000.20,0000.27,0000.64,0000.06,-000.50,0000.17,0000.13,-000.17,19.1,25.2,,00.0,0637.2,30.9
2021-11-20T18:15:00Z,00000200,01000000,0000.03,0000.54,-000.01,-000.01,0000.11,0000.04,-000.01,0000.08,-000.09,19.0,25.2,,00.0,0637.1,30.9
2021-11-20T18:16:00Z,00000200,01000000,0000.33,0000.05,0000.00,0000.39,-000.00,-000.17,0000.24,0000.10,0000.17,19.0,25.2,,00.0,0637.1,30.8
2021-11-20T18:17:00Z,00000200,01000000,0000.63,0000.19,0000.00,-000.26,0000.14,-000.05,-000.12,-000.05,0000.18,18.9,25.1,,00.0,0637.1,30.8
2021-11-20T18:18:00Z,00000200,01000000,0000.90,0000.14,-000.27,0000.69,0000.12,-000.17,0000.33,0000.30,0000.52,18.8,25.1,,00.0,0637.1,30.8
2021-11-20T18:19:00Z,00000200,01000000,0000.56,0000.22,-000.07,0000.07,-000.15,-000.28,0000.52,0000.40,-000.02,18.8,25.1,,00.0,0637.1,30.8
2021-11-20T18:20:00Z,00000200,01000000,0000.93,0000.51,0000.47,-000.25,0000.14,-000.06,0000.39,0000.12,-000.27,18.8,25.1,,00.0,0637.1,30.8
2021-11-20T18:21:00Z,00000200,01000000,-000.05,0000.19,0000.44,0000.28,0000.18,0000.20,0000.20,0000.48,0000.57,18.9,25.1,,00.0,0637.2,30.9
2021-11-20T18:22:00Z,00000200,01000000,0000.28,-000.08,0000.01,0000.19,-000.07,-000.18,0000.26,0000.24,0000.20,18.9,25.1,,00.0,0637.2,30.8
2021-11-20T18:23:00Z,00000200,01000000,0000.26,0000.58,0000.16,-000.26,0000.09,0000.28,-000.09,0000.12,0000.06,18.9,25.1,,00.0,0637.1,30.9
2021-11-20T18:24:00Z,00000200,01000000,0000.19,0000.01,0000.28,0000.24,0000.17,0000.10,0000.54,0000.06,0000.08,19.0,25.1,,00.0,0637.1,30.8
2021-11-20T18:25:00Z,00000200,01000000,0000.58,0000.42,0000.13,-000.22,0000.10,-000.10,0000.12,0000.11,0000.27,19.0,25.2,,00.0,0637.2,30.9
2021-11-20T18:26:00Z,00000200,01000000,0000.96,0000.24,-000.11,0000.25,0000.00,-000.12,0000.30,0000.22,-000.26,19.1,25.2,,00.0,0637.1,30.9
2021-11-20T18:27:00Z,00000200,01000000,0000.36,0000.28,0000.24,0000.67,0000.18,-000.02,-000.03,0000.10,0000.46,19.1,25.2,,00.0,0637.1,30.9
2021-11-20T18:28:00Z,00000200,01000000,0000.49,0000.33,-000.13,0000.41,-000.05,-000.05,0000.19,0000.48,0000.07,19.1,25.2,,00.0,0637.1,30.9
2021-11-20T18:29:00Z,00000200,01000000,-000.15,0000.14,0000.44,-000.07,0000.41,0000.12,-000.03,0000.01,0000.13,19.1,25.2,,00.0,0637.1,30.9
2021-11-20T18:30:00Z,00000200,01000000,0000.78,0000.09,0000.61,0000.12,0000.20,-000.04,0000.52,0000.07,0000.39,19.0,25.2,,00.0,0637.0,30.9
2021-11-20T18:31:00Z,00000200,01000000,0000.27,0000.27,0000.25,0000.35,0000.02,0000.36,0000.11,0000.47,-000.15,19.0,25.2,,00.0,0636.9,30.8
2021-11-20T18:32:00Z,00000200,01000000,0000.35,0000.36,-000.09,0000.55,-000.01,-000.01,0000.24,-000.01,0000.26,18.9,25.1,,00.0,0636.9,30.8
2021-11-20T18:33:00Z,00000200,01000000,0000.91,0000.45,-000.25,-000.20,-000.02,-000.36,0000.59,0000.41,0000.48,18.8,25.1,,00.0,0636.9,30.8
2021-11-20T18:34:00Z,00000200,01000000,0000.10,0000.33,0000.14,0000.65,0000.39,0000.10,0000.07,0000.05,0000.07,18.8,25.1,,00.0,0636.8,30.8
2021-11-20T18:35:00Z,00000200,01000000,0000.39,0000.22,0000.20,0000.44,0000.00,-000.08,0000.21,0000.01,0000.29,18.8,25.1,,00.0,0636.8,30.8
2021-11-20T18:36:00Z,00000200,01000000,0000.30,0000.63,-000.00,0000.17,0000.23,-000.16,0000.23,0000.57,0000.23,18.8,25.1,,00.0,0636.7,30.8
2021-11-20T18:37:00Z,00000200,01000000,0000.41,0000.51,0000.19,-000.06,-000.23,-000.04,0000.10,0000.22,-000.14,18.9,25.1,,00.0,0636.7,30.8
2021-11-20T18:38:00Z,00000200,01000000,0000.56,0000.60,0000.20,0000.74,0000.14,0000.10,0000.21,0000.12,0000.35,18.9,25.1,,00.0,0636.7,30.8
2021-11-20T18:39:00Z,00000200,01000000,0000.41,0000.15,0000.04,-000.17,-000.11,-000.16,0000.44,0000.05,0000.23,18.9,25.1,,00.0,0636.7,30.8
2021-11-20T18:40:00Z,00000200,01000000,0000.97,0000.30,0000.09,0000.39,-000.20,0000.10,0000.38,0000.60,-000.02,19.0,25.1,,00.0,0636.7,30.9
2021-11-20T18:41:00Z,00000200,01000000,0000.14,0000.05,-000.18,0000.66,-000.15,0000.28,0000.06,0000.15,0000.08,19.1,25.2,,00.0,0636.7,30.9
2021-11-20T18:42:00Z,00000200,01000000,0000.40,0000.38,0000.14,0000.40,-000.05,0000.08,0000.39,0000.11,0000.27,19.1,25.2,,00.0,0636.7,30.9
2021-11-20T18:43:00Z,00000200,01000000,0000.57,0000.24,0000.27,-000.05,0000.20,0000.02,-000.16,0000.19,0000.13,19.1,25.2,,00.0,0636.7,30.9
2021-11-20T18:44:00Z,00000200,01000000,0000.07,0000.14,0000.19,-000.02,0000.13,0000.03,0000.31,0000.09,0000.01,19.1,25.2,,00.0,0636.7,30.9
2021-11-20T18:45:00Z,00000200,01000000,-000.01,0000.16,0000.05,-000.20,0000.14,0000.22,0000.27,0000.02,0000.27,19.1,25.2,,00.0,0636.7,30.9
2021-11-20T18:46:00Z,00000200,01000000,0000.74,0000.09,0000.24,-000.01,0000.10,-000.05,0000.04,0000.33,-000.19,19.0,25.2,,00.0,0636.6,30.8
2021-11-20T18:47:00Z,00000200,01000000,0000.44,0000.49,0000.17,-000.17,-000.16,0000.15,0000.34,0000.16,0000.07,18.9,25.2,,00.0,0636.6,30.8
2021-11-20T18:48:00Z,00000200,01000000,0000.12,0000.00,-000.21,0000.30,0000.18,-000.17,0000.38,0000.47,0000.60,18.9,25.1,,00.0,0636.5,30.8
2021-11-20T18:49:00Z,00000200,01000000,0001.00,0000.17,0000.38,0000.21,0000.36,-000.03,0000.56,0000.50,0000.67,18.8,25.1,,00.0,0636.5,30.8
2021-11-20T18:50:00Z,00000200,01000000,-000.55,0000.29,0000.09,0000.15,0000.03,-000.17,0000.14,0000.22,-000.18,18.8,25.1,,00.0,0636.5,30.8
2021-11-20T18:51:00Z,00000200,01000000,0000.08,-000.00,-000.21,0000.07,-000.13,0000.08,0000.02,-000.12,0000.11,18.9,25.1,,00.0,0636.5,30.8
2021-11-20T18:52:00Z,00000200,01000000,-000.13,0000.18,-000.06,0000.19,-000.14,0000.00,0000.27,0000.49,0000.05,18.9,25.1,,00.0,0636.5,30.8
2021-11-20T18:53:00Z,00000200,01000000,0000.57,0000.24,0000.00,-000.15,0000.03,0000.32,0000.22,0000.01,0000.05,19.0,25.1,,00.0,0636.5,30.8
2021-11-20T18:54:00Z,00000200,01000000,0000.31,0000.26,0000.38,0000.21,-000.00,0000.18,0000.50,0000.13,0000.60,19.0,25.2,,00.0,0636.5,30.9
2021-11-20T18:55:00Z,00000200,01000000,-000.66,0000.54,0000.39,0000.24,0000.38,0000.36,0000.11,0000.47,-000.06,19.1,25.2,,00.0,0636.5,30.9
2021-11-20T18:56:00Z,00000200,01000000,0000.20,0000.10,-000.13,0000.28,0000.05,0000.03,0000.11,0000.12,0000.19,19.1,25.2,,00.0,0636.4,30.9
2021-11-20T18:57:00Z,00000200,41000000,,,,,,,-000.56,-000.77,-000.45,19.2,25.2,,00.0,0636.3,30.9
2021-11-20T18:58:00Z,00000200,61000000,,,,,,,-000.10,-000.10,0000.14,18.9,25.3,,00.0,0635.4,30.9
2021-11-20T18:59:00Z,00000200,21000000,,,,,,,0000.64,0000.44,0000.28,18.8,25.4,,00.0,0635.4,30.9
